[[{"header":{"parameterUnit":"m.s-1","parameterCategory":1,"la1":30.2991,"la2":30.254,"lo1":-89.0895,"lo2":-89.0444,"dy":0.0017,"dx":0.0017,"nx":28,"ny":28,"refTime":"2024-10-08T03:00:00:Z","depth":0,"parameterNumber":2,"parameterNumberName":"U-component_of_WINDS"},"data":[0,0,0,0,0,0,0,0,0,0,0,0,0,0,0,0,0,0,0,0,0,0,0,0,0,0,0,0,0,0,0,0,0,0,0,0,0,0,0,0,0,0,0,0,0,0,0,0,0,0,0,0,0,0,0,0,0,0,0.163,0.163,0,0.1598,0.1598,0.1597,0.1592,0.1592,0.1592,0.1592,0.1557,0.1555,0.1554,0,0,0,0,0,0,0,0,0,0,0,0,0,0.1684,0.1683,0.163,0.163,0.1629,0.1598,0.1598,0.1597,0.1592,0.1592,0.1592,0.1593,0.1557,0.1556,0.1554,0,0,0,0,0,0,0,0,0,0,0,0,0,0.1657,0.1683,0.163,0.1623,0.1622,0.1598,0.1598,0.1597,0.1592,0.1592,0.1592,0.1593,0.1557,0.1556,0.1554,0.1534,0,0,0.1548,0.1548,0,0,0,0,0,0,0,0,0.1659,0.1655,0.1624,0.1623,0.1622,0.1599,0.1604,0.1576,0.1591,0.1603,0.1593,0.1593,0.157,0.1567,0.156,0.1533,0.1531,0.1548,0.1547,0.1546,0.1546,0,0,0,0,0,0,0,0.166,0.1656,0.1617,0.1624,0.1623,0.162,0.1617,0.1598,0.1585,0.1602,0.1602,0.1598,0.157,0.1562,0.156,0.1531,0.1548,0.1547,0.1546,0.1545,0.1485,0.1485,0,0,0,0,0,0,0.1664,0.1658,0.1618,0.1616,0.1642,0.1619,0.1615,0.1606,0.1585,0.1582,0.1598,0.1598,0.1565,0.1562,0.1558,0.1534,0.1546,0.1545,0.1544,0.1486,0.1485,0.1485,0,0,0,0,0,0,0.1665,0.1661,0.162,0.1637,0.1632,0.1618,0.1608,0.1605,0.1598,0.1582,0.1579,0.1593,0.1565,0.1561,0.1541,0.1532,0.1544,0.1542,0.1486,0.1486,0.1485,0.1485,0,0,0,0,0,0,0.1667,0.1661,0.1654,0.1637,0.1631,0.1603,0.1607,0.1604,0.1595,0.1595,0.1576,0.1573,0.1565,0.1543,0.1539,0.153,0.1541,0.1487,0.1486,0.1485,0.1485,0.1484,0.1483,0,0,0,0,0,0.1669,0.1655,0.1654,0.1649,0.1622,0.1603,0.1599,0.1591,0.1595,0.1587,0.1577,0.1574,0.1534,0.1541,0.1536,0.1527,0.1487,0.1486,0.1485,0.1486,0.1484,0.1483,0,0,0,0,0,0,0.167,0.1652,0.1651,0.1631,0.1619,0.1602,0.1592,0.159,0.1575,0.1576,0.1565,0.1561,0.1541,0.1532,0.154,0.1507,0.1511,0.1509,0.1513,0.1512,0.1511,0.1513,0.1539,0,0,0,0,0,0.1668,0.1655,0.164,0.1624,0.1618,0.1606,0.1597,0.1593,0.1579,0.1573,0.1561,0.1547,0.1532,0.1521,0.1506,0.1485,0.148,0.1476,0.1475,0.1474,0.1471,0.1459,0.1457,0.1481,0.1481,0.1481,0,0,0.1663,0.1652,0.1644,0.1624,0.1613,0.1599,0.1602,0.1586,0.1575,0.157,0.1551,0.1542,0.1525,0.1504,0.1494,0.1496,0.1464,0.1472,0.1472,0.147,0.1458,0.1455,0.1453,0.148,0.148,0.1481,0,0,0.1648,0.1638,0.1624,0.1614,0.1599,0.1591,0.1588,0.1572,0.1566,0.1546,0.1542,0.1529,0.1502,0.1491,0.1482,0.1463,0.1459,0.1458,0.1451,0.1439,0.1437,0.1436,0.1428,0.1426,0.1456,0.1456,0.1456,0,0.1644,0.1623,0.1616,0.1602,0.1592,0.1589,0.1573,0.1564,0.1544,0.1537,0.154,0.1507,0.1495,0.1472,0.1467,0.146,0.1455,0.1459,0.1438,0.1437,0.1435,0.1427,0.1425,0.1456,0.1456,0.1456,0.1456,0,0.1618,0.1604,0.1594,0.1576,0.1566,0.1551,0.1542,0.1532,0.1528,0.152,0.15,0.1487,0.1469,0.1463,0.1459,0.1439,0.144,0.1441,0.1444,0.1432,0.1425,0.1423,0.1456,0.1456,0.1456,0.1456,0,0,0.1601,0.1581,0.1577,0.1569,0.1553,0.1541,0.1526,0.151,0.1501,0.1488,0.1474,0.1453,0.1453,0.1443,0.1437,0.1427,0.1412,0.1429,0.1428,0.1425,0.1388,0.1387,0.1384,0.1411,0.141,0.141,0.1389,0,0.1583,0.1557,0.1551,0.1528,0.1514,0.1511,0.1497,0.1486,0.1478,0.1465,0.1456,0.1441,0.1443,0.1437,0.1426,0.1416,0.1404,0.1418,0.1396,0.1396,0.14,0.1381,0.1379,0.1361,0.1387,0.1386,0.1386,0,0.1558,0.1545,0.1521,0.1507,0.1501,0.1489,0.1474,0.1462,0.1448,0.1443,0.1432,0.1428,0.1411,0.1417,0.1393,0.1402,0.1393,0.1387,0.1386,0.1383,0.1389,0.1376,0.1355,0.1352,0.1382,0.1382,0.1382,0,0.1547,0.1524,0.1506,0.15,0.1483,0.1475,0.1467,0.1454,0.1445,0.1431,0.1424,0.1409,0.14,0.1387,0.1378,0.1384,0.1355,0.136,0.135,0.135,0.1343,0.1343,0.1319,0.1339,0.1339,0.1339,0.1339,0,0.1526,0.1511,0.1501,0.149,0.1474,0.1467,0.145,0.1442,0.1431,0.1418,0.1414,0.1402,0.1392,0.1378,0.1371,0.1352,0.1348,0.1343,0.1341,0.1343,0.1343,0.1336,0.1336,0.1339,0.1339,0.1339,0.1339,0,0.151,0.1503,0.1484,0.147,0.1466,0.1454,0.1442,0.1431,0.1424,0.1408,0.1403,0.1392,0.1375,0.1366,0.1345,0.134,0.1319,0.1318,0.1324,0.1323,0.1312,0.1313,0.1281,0.1277,0.1301,0.1301,0.1301,0,0.1497,0.1486,0.1471,0.1463,0.1456,0.1442,0.1433,0.1426,0.1416,0.14,0.1391,0.1375,0.1361,0.1335,0.1324,0.1307,0.1306,0.1296,0.1303,0.1305,0.1304,0.1305,0.1303,0.1294,0.1294,0.1294,0.1293,0,0.1475,0.1472,0.1459,0.1445,0.1435,0.1423,0.1411,0.1404,0.1396,0.1385,0.1369,0.1358,0.1337,0.1321,0.1304,0.1295,0.1292,0.1292,0.1288,0.1289,0.1292,0.1289,0.1319,0.1292,0.1292,0.1292,0.1292,0.1292,0.1459,0.1449,0.1437,0.1423,0.1414,0.1403,0.1392,0.1385,0.1371,0.1354,0.1351,0.1334,0.132,0.1298,0.1289,0.1274,0.1276,0.1271,0.127,0.1268,0.1267,0.1296,0.1271,0.1271,0.1271,0.1271,0.1271,0,0.1435,0.1428,0.1415,0.14,0.1388,0.1389,0.1376,0.1366,0.1352,0.134,0.1327,0.1308,0.1292,0.1281,0.1265,0.1255,0.1254,0.1251,0.1251,0.1249,0.1267,0.1272,0.1253,0.1253,0.1253,0.1253,0.1253,0.1253,0.1421,0.1404,0.14,0.1378,0.137,0.1354,0.1347,0.1337,0.1328,0.1307,0.1294,0.1288,0.1276,0.1259,0.1244,0.1241,0.1234,0.1232,0.1228,0.1246,0.1248,0.1249,0.1253,0.1231,0.1231,0.1211,0.1211,0.1211]},{"header":{"parameterUnit":"m.s-1","parameterCategory":1,"la1":30.2991,"la2":30.254,"lo1":-89.0895,"lo2":-89.0444,"dy":0.0017,"dx":0.0017,"nx":28,"ny":28,"refTime":"2024-10-08T03:00:00:Z","depth":0,"parameterNumber":3,"parameterNumberName":"V-component_of_WINDS"},"data":[0,0,0,0,0,0,0,0,0,0,0,0,0,0,0,0,0,0,0,0,0,0,0,0,0,0,0,0,0,0,0,0,0,0,0,0,0,0,0,0,0,0,0,0,0,0,0,0,0,0,0,0,0,0,0,0,0,0,-5.372,-5.3721,0,-5.3794,-5.3795,-5.3796,-5.3718,-5.3715,-5.3712,-5.371,-5.3781,-5.3786,-5.379,0,0,0,0,0,0,0,0,0,0,0,0,0,-5.3506,-5.3511,-5.372,-5.3721,-5.3722,-5.3794,-5.3795,-5.3796,-5.3719,-5.3715,-5.3712,-5.3708,-5.378,-5.3785,-5.3791,0,0,0,0,0,0,0,0,0,0,0,0,0,-5.3592,-5.3512,-5.372,-5.3692,-5.369,-5.3794,-5.3795,-5.3797,-5.372,-5.3715,-5.3711,-5.3707,-5.3778,-5.3785,-5.3792,-5.3925,0,0,-5.3813,-5.3816,0,0,0,0,0,0,0,0,-5.3587,-5.36,-5.3695,-5.3694,-5.3692,-5.3743,-5.3746,-5.3839,-5.3721,-5.3708,-5.371,-5.3704,-5.3772,-5.3779,-5.3803,-5.3928,-5.3931,-5.3814,-5.3818,-5.3821,-5.3823,0,0,0,0,0,0,0,-5.3581,-5.3596,-5.3749,-5.3697,-5.3695,-5.3675,-5.3682,-5.3764,-5.3764,-5.3709,-5.3704,-5.3714,-5.377,-5.3796,-5.3804,-5.3932,-5.3814,-5.382,-5.3824,-5.3827,-5.4172,-5.4177,0,0,0,0,0,0,-5.3579,-5.3592,-5.3747,-5.3751,-5.3628,-5.3682,-5.369,-5.3731,-5.3763,-5.3764,-5.3718,-5.371,-5.3786,-5.3796,-5.3806,-5.3965,-5.3821,-5.3828,-5.3832,-5.4167,-5.4173,-5.4179,0,0,0,0,0,0,-5.3575,-5.3594,-5.3744,-5.367,-5.3688,-5.3691,-5.3737,-5.3735,-5.3761,-5.377,-5.3769,-5.3745,-5.3783,-5.3796,-5.3897,-5.3967,-5.3831,-5.3837,-5.4162,-5.4169,-5.4176,-5.4285,0,0,0,0,0,0,-5.3569,-5.3593,-5.3644,-5.3672,-5.3692,-5.3835,-5.3741,-5.374,-5.3774,-5.3764,-5.3795,-5.3795,-5.3781,-5.3887,-5.3904,-5.3974,-5.3843,-5.4155,-5.4165,-5.4174,-5.4275,-5.4295,-5.4312,0,0,0,0,0,-5.3562,-5.367,-5.3647,-5.3666,-5.3757,-5.3839,-5.385,-5.3833,-5.378,-5.3831,-5.3837,-5.3794,-5.3956,-5.3898,-5.3916,-5.399,-5.4151,-5.4162,-5.4173,-5.4267,-5.4291,-5.4312,0,0,0,0,0,0,-5.3649,-5.3673,-5.3648,-5.3769,-5.3803,-5.3826,-5.389,-5.3859,-5.3907,-5.3896,-5.387,-5.3878,-5.3985,-5.3997,-5.3931,-5.4121,-5.4045,-5.406,-5.411,-5.4133,-5.4151,-5.4146,-5.3849,0,0,0,0,0,-5.3682,-5.3749,-5.3766,-5.3871,-5.3889,-5.3887,-5.3922,-5.3906,-5.3939,-5.3952,-5.3965,-5.3998,-5.4056,-5.4095,-5.4149,-5.4276,-5.4282,-5.4336,-5.4354,-5.437,-5.4384,-5.4453,-5.4478,-5.4215,-5.4215,-5.4215,0,0,-5.3752,-5.3773,-5.3816,-5.3889,-5.3913,-5.3982,-5.39,-5.3974,-5.4025,-5.3963,-5.406,-5.4071,-5.4105,-5.422,-5.4271,-5.4233,-5.4457,-5.4384,-5.4396,-5.4402,-5.4467,-5.4492,-5.4514,-5.4223,-5.4222,-5.422,0,0,-5.3914,-5.3937,-5.4028,-5.4054,-5.4093,-5.4091,-5.4113,-5.4141,-5.4146,-5.4243,-5.4199,-5.4257,-5.4358,-5.4385,-5.4412,-5.4586,-5.4548,-5.4603,-5.4701,-5.4769,-5.479,-5.4808,-5.4871,-5.4894,-5.4617,-5.4617,-5.4617,0,-5.3995,-5.4097,-5.4078,-5.4158,-5.4191,-5.414,-5.4232,-5.4258,-5.4311,-5.4335,-5.4292,-5.4419,-5.4438,-5.456,-5.4602,-5.4625,-5.4649,-5.46,-5.4789,-5.4807,-5.4823,-5.4883,-5.4907,-5.4624,-5.4623,-5.4622,-5.4622,0,-5.4196,-5.4268,-5.4336,-5.4392,-5.4433,-5.4518,-5.4511,-5.4554,-5.4535,-5.4537,-5.4637,-5.4658,-5.4717,-5.4744,-5.4724,-5.4863,-5.4839,-5.4793,-5.4716,-5.4855,-5.4911,-5.4934,-5.4633,-5.4631,-5.4629,-5.4627,0,0,-5.4414,-5.446,-5.4485,-5.4511,-5.455,-5.4604,-5.4687,-5.4746,-5.4784,-5.4823,-5.4891,-5.4978,-5.4937,-5.4967,-5.495,-5.501,-5.5148,-5.4957,-5.4957,-5.4993,-5.5304,-5.5339,-5.5366,-5.5123,-5.5128,-5.5131,-5.5301,0,-5.4579,-5.4725,-5.471,-5.4848,-5.4915,-5.4868,-5.494,-5.4971,-5.4976,-5.5032,-5.5035,-5.5098,-5.5038,-5.5056,-5.5113,-5.5119,-5.521,-5.5107,-5.5187,-5.519,-5.5181,-5.5395,-5.5432,-5.5592,-5.5323,-5.5326,-5.5329,0,-5.479,-5.4839,-5.4984,-5.5015,-5.5042,-5.5108,-5.5161,-5.5215,-5.525,-5.5249,-5.5284,-5.5257,-5.5339,-5.5261,-5.5374,-5.5304,-5.5335,-5.5343,-5.5349,-5.5357,-5.5269,-5.5409,-5.5642,-5.5666,-5.5363,-5.536,-5.5358,0,-5.4936,-5.5038,-5.5139,-5.5162,-5.52,-5.5247,-5.5264,-5.5295,-5.5332,-5.5378,-5.5401,-5.5456,-5.5486,-5.5528,-5.5516,-5.546,-5.5633,-5.5552,-5.5634,-5.5635,-5.5673,-5.5671,-5.5915,-5.5692,-5.5691,-5.5691,-5.569,0,-5.5122,-5.5213,-5.5206,-5.5268,-5.5369,-5.5351,-5.545,-5.5462,-5.5489,-5.5552,-5.5514,-5.5573,-5.5553,-5.5612,-5.5602,-5.5698,-5.5711,-5.5713,-5.571,-5.5717,-5.5717,-5.5738,-5.5727,-5.5697,-5.5696,-5.5695,-5.5694,0,-5.5303,-5.5302,-5.5409,-5.5437,-5.5446,-5.5519,-5.5542,-5.56,-5.5602,-5.5682,-5.57,-5.5702,-5.5769,-5.5761,-5.5835,-5.5829,-5.5948,-5.5931,-5.5938,-5.5934,-5.6017,-5.601,-5.6284,-5.632,-5.6072,-5.6075,-5.6077,0,-5.5422,-5.5492,-5.5528,-5.5569,-5.559,-5.5655,-5.5694,-5.5678,-5.5719,-5.5765,-5.5818,-5.5881,-5.5931,-5.604,-5.6047,-5.6104,-5.6088,-5.618,-5.6096,-5.6102,-5.6091,-5.6088,-5.6095,-5.6197,-5.62,-5.6202,-5.6204,0,-5.5634,-5.5631,-5.5688,-5.5747,-5.5794,-5.5838,-5.5878,-5.5913,-5.5902,-5.595,-5.6019,-5.6058,-5.6135,-5.6198,-5.6252,-5.6268,-5.6235,-5.6231,-5.6253,-5.6262,-5.6264,-5.6265,-5.5985,-5.6225,-5.6223,-5.6221,-5.622,-5.6219,-5.5789,-5.5849,-5.5885,-5.5951,-5.598,-5.6019,-5.6076,-5.6086,-5.6143,-5.6206,-5.6193,-5.6271,-5.6304,-5.6373,-5.6395,-5.6455,-5.6421,-5.6453,-5.6461,-5.647,-5.648,-5.6254,-5.6464,-5.6464,-5.6463,-5.6463,-5.6462,0,-5.6,-5.6022,-5.6082,-5.6141,-5.6193,-5.6159,-5.6202,-5.6247,-5.6317,-5.6351,-5.6402,-5.6482,-5.6544,-5.6557,-5.6616,-5.6662,-5.6648,-5.6678,-5.6675,-5.6679,-5.6506,-5.6482,-5.6688,-5.6688,-5.6688,-5.6688,-5.6688,-5.6688,-5.6117,-5.6218,-5.6219,-5.6333,-5.6353,-5.6431,-5.6459,-5.6494,-5.6522,-5.6614,-5.6666,-5.6675,-5.6701,-5.6761,-5.6817,-5.6819,-5.6843,-5.6879,-5.6875,-5.6714,-5.6691,-5.667,-5.6647,-5.6884,-5.6884,-5.7043,-5.7045,-5.7046]}]]